Location: Unspecified
(0.0000°N, 0.0000°E)
Time: 03:42:12
(UTC+00:00)

Vanguard 2 Rocket - Pass Details

Date: 16 December 2018
Orbit: 556 x 3325 km, 32.9° (Epoch: 18 March)

Event Time Altitude Azimuth Distance (km) Brightness Sun altitude
Rises 01:07:08 0° 231° (SW) 6,124 11.2 -60.9°
Enters shadow 01:10:05 - 230° (SW) 5,236 10.8 -60.5°
Reaches altitude 10° 01:11:54 10° 229° (SW) 4,671 - -60.2°
Maximum altitude 01:23:36 68° 148° (SSE) 1,437 - -58.3°
Drops below altitude 10° 01:30:01 10° 65° (ENE) 2,665 - -57.3°
Sets 01:32:04 0° 63° (ENE) 3,388 - -56.9°
